Jaipur, India

2:28 PM IST on March 25, 2017 (GMT +0530)
Jaipur

Weather History for VIJP - February, 2014

Change the Weather History Date:

Wednesday, February 19, 2014

  Actual Average Record
Temperature  
Mean Temperature 64 °F -  
Max Temperature 78 °F - - ()
Min Temperature 49 °F - - ()
Degree Days  
Heating Degree Days 2    
Growing Degree Days 14 (Base 50)    
Moisture  
Dew Point 36 °F    
Average Humidity 35    
Maximum Humidity 54    
Minimum Humidity 11    
Precipitation  
Precipitation 0.00 in - - ()
Sea Level Pressure  
Sea Level Pressure 30.02 in    
Wind  
Wind Speed 4 mph ()    
Max Wind Speed 9 mph    
Max Gust Speed -    
Visibility 1.8 miles    
Events      
T = Trace of Precipitation, MM = Missing Value Source: Averaged Metar Reports

Daily Weather History Graph

Daily Weather History Graph

Search for Another Location

Airport or City:

Trip Planner

Search our weather history database for the weather conditions in past years. The results will help you decide how hot, cold, wet, or windy it might be!

Date:

Astronomy

Feb. 19, 2014 Rise Set
Actual Time 7:00 AM IST 6:21 PM IST
Civil Twilight 6:36 AM IST 6:45 PM IST
Nautical Twilight 6:09 AM IST 7:12 PM IST
Astronomical Twilight 5:42 AM IST 7:39 PM IST
Moon 10:18 PM IST (2/19) 9:16 AM IST (2/19)
Length of Visible Light 12h 08m
Length of Day
11h 21m
Waning Gibbous, 83% of the Moon is Illuminated
Feb 19
Waning Gibbous
Feb 22
Last Quarter
Mar 1
New
Mar 8
First Quarter
Mar 16
Full

Hourly Weather History & Observations

Time (IST) Temp. Dew Point Humidity Pressure Visibility Wind Dir Wind Speed Gust Speed Precip Events Conditions
12:00 AM 57.2 °F 33.8 °F 41% 30.06 in 1.6 mi East 4.6 mph - N/A   Haze
1:00 AM 55.4 °F 33.8 °F 44% 30.06 in 1.6 mi ESE 4.6 mph - N/A   Haze
2:00 AM 55.4 °F 33.8 °F 44% 30.04 in 1.6 mi Variable 2.3 mph - N/A   Haze
2:30 AM 56 °F 34 °F 31% 30.02 in 1 mi NE 4.6 mph - -   Smoke
3:00 AM 53.6 °F 33.8 °F 47% 30.04 in 1.2 mi East 3.5 mph - N/A   Smoke
4:00 AM 55.4 °F 33.8 °F 44% 30.04 in 1.2 mi Variable 3.5 mph - N/A   Smoke
5:00 AM 53.6 °F 35.6 °F 51% 30.04 in 1.2 mi Variable 2.3 mph - N/A   Smoke
5:30 AM 53 °F 35 °F 38% 30.02 in 1 mi East 2.3 mph - -   Smoke
6:00 AM 51.8 °F 35.6 °F 54% 30.04 in 1.2 mi Variable 2.3 mph - N/A   Smoke
6:30 AM 51.8 °F 35.6 °F 54% 30.04 in 1.2 mi East 3.5 mph - N/A   Smoke
7:00 AM 51.8 °F 35.6 °F 54% 30.04 in 1.2 mi East 4.6 mph - N/A   Smoke
7:30 AM 53.6 °F 35.6 °F 51% 30.06 in 1.2 mi East 5.8 mph - N/A   Smoke
8:00 AM 57.2 °F 37.4 °F 48% 30.06 in 1.6 mi ENE 5.8 mph - N/A   Smoke
8:30 AM 62 °F 40 °F 32% 30.06 in 1 mi ENE 6.9 mph - -   Haze
10:00 AM 68.0 °F 35.6 °F 30% 30.12 in 1.9 mi East 9.2 mph - N/A   Haze
11:00 AM 69.8 °F 37.4 °F 31% 30.09 in 2.5 mi SE 9.2 mph - N/A   Haze
11:30 AM 73 °F 46 °F 27% 30.03 in 1 mi SE 9.2 mph - -   Haze
1:00 PM 73.4 °F 32.0 °F 22% 30.06 in 3.1 mi Variable 5.8 mph - N/A   Haze
2:00 PM 77.0 °F 32.0 °F 19% 30.06 in 3.1 mi South 6.9 mph - N/A   Haze
2:30 PM 76 °F 31 °F 11% 29.95 in 2 mi SSE 6.9 mph - -   Haze
3:00 PM 75.2 °F 26.6 °F 17% 29.98 in 3.1 mi SE 6.9 mph - N/A   Haze
4:00 PM 75.2 °F 30.2 °F 19% 29.98 in 3.1 mi Variable 5.8 mph - N/A   Haze
5:00 PM 75.2 °F 30.2 °F 19% 29.98 in 3.1 mi SSE 5.8 mph - N/A   Haze
5:30 PM 74 °F 33 °F 13% 29.91 in 2 mi SE 4.6 mph - -   Haze
6:00 PM 73.4 °F 33.8 °F 23% 29.98 in 3.1 mi SE 6.9 mph - N/A   Haze
7:00 PM 68.0 °F 35.6 °F 30% 29.98 in 3.1 mi SE 4.6 mph - N/A   Haze
8:00 PM 66.2 °F 37.4 °F 35% 30.01 in 2.5 mi East 3.5 mph - N/A   Haze
8:30 PM 65 °F 46 °F 39% 29.96 in 1 mi East 4.6 mph - -   Haze
9:00 PM 64.4 °F 37.4 °F 37% 30.01 in 2.2 mi East 4.6 mph - N/A   Haze
10:00 PM 64.4 °F 37.4 °F 37% 30.04 in 1.9 mi ENE 5.8 mph - N/A   Haze
10:30 PM 64.4 °F 37.4 °F 37% 30.01 in 1.9 mi East 6.9 mph - N/A   Haze
11:00 PM 62.6 °F 37.4 °F 39% 30.01 in 1.6 mi East 6.9 mph - N/A   Haze
11:30 PM 62 °F 43 °F 38% 29.98 in 1 mi East 5.8 mph - -   Haze
11:30 PM 62.6 °F 39.2 °F 42% 30.01 in 1.6 mi East 6.9 mph - N/A   Haze